UAL2471 KIAD-KDFW

Flight info

Callsign UAL2471
Flight time N/A
Altitude 26000
Route RNLDI4 OTTTO Q80 RONZZ BKW VXV GQO VUZ SQS FEWWW SEEVR4
Aircraft A319/M-SDE3FGHIRWY/LB1

Departure

Time N/A
Airport Washington Dulles International Airport (KIAD)

Arrival

Time 2026-05-05 17:23
Airport Dallas Fort Worth International Airport (KDFW)
Time Latitude Longitude Altitude Speed Heading
2026-05-05 14:48 38.78104 -78.81371 25246 ft 422 kts 258°
2026-05-05 14:49 38.77484 -78.85062 25567 ft 425 kts 258°
2026-05-05 14:49 38.76861 -78.88772 25875 ft 427 kts 258°
2026-05-05 14:49 38.76236 -78.92502 25968 ft 430 kts 258°
2026-05-05 14:49 38.75602 -78.96279 25972 ft 434 kts 258°
2026-05-05 14:50 38.74967 -79.00062 25969 ft 435 kts 258°
2026-05-05 14:50 38.74328 -79.03855 25970 ft 436 kts 258°
2026-05-05 14:50 38.73688 -79.07643 25970 ft 435 kts 258°
2026-05-05 14:50 38.73044 -79.11439 25970 ft 436 kts 258°
2026-05-05 14:51 38.72399 -79.15221 25970 ft 436 kts 258°
2026-05-05 14:51 38.71749 -79.19016 25985 ft 436 kts 258°
2026-05-05 14:51 38.71099 -79.22805 25990 ft 435 kts 258°
2026-05-05 14:51 38.70452 -79.26587 25989 ft 435 kts 258°
2026-05-05 14:52 38.69822 -79.30371 25986 ft 435 kts 259°
2026-05-05 14:52 38.69212 -79.34106 25983 ft 434 kts 259°
2026-05-05 14:52 38.68591 -79.37939 25982 ft 434 kts 259°
2026-05-05 14:52 38.67985 -79.41676 25982 ft 434 kts 259°
2026-05-05 14:53 38.67365 -79.45458 25983 ft 434 kts 259°
2026-05-05 14:53 38.66742 -79.49242 25986 ft 434 kts 259°
2026-05-05 14:53 38.66114 -79.53020 25988 ft 434 kts 259°
2026-05-05 14:53 38.65484 -79.56791 25990 ft 434 kts 259°
2026-05-05 14:54 38.64851 -79.60565 25993 ft 433 kts 259°
2026-05-05 14:54 38.64218 -79.64340 25995 ft 433 kts 259°
2026-05-05 14:54 38.63585 -79.68105 25997 ft 433 kts 259°
2026-05-05 14:54 38.62945 -79.71869 25997 ft 433 kts 258°
2026-05-05 14:55 38.62283 -79.75630 25997 ft 433 kts 258°
2026-05-05 14:55 38.61606 -79.79380 26000 ft 433 kts 258°
2026-05-05 14:55 38.60921 -79.83133 26003 ft 433 kts 258°
2026-05-05 14:55 38.60235 -79.86883 26005 ft 433 kts 258°
2026-05-05 14:56 38.59552 -79.90627 26009 ft 433 kts 258°
2026-05-05 14:56 38.58869 -79.94387 26010 ft 433 kts 258°
2026-05-05 14:56 38.58189 -79.98133 26009 ft 433 kts 258°
2026-05-05 14:56 38.57507 -80.01890 26011 ft 433 kts 258°
2026-05-05 14:57 38.56826 -80.05643 26011 ft 433 kts 258°
2026-05-05 14:57 38.56041 -80.09359 26010 ft 434 kts 252°
2026-05-05 14:57 38.54803 -80.12887 26011 ft 436 kts 243°
2026-05-05 14:57 38.53112 -80.16114 26009 ft 439 kts 234°
2026-05-05 14:58 38.51027 -80.18991 26012 ft 442 kts 228°
2026-05-05 14:58 38.48860 -80.21779 26010 ft 442 kts 228°
2026-05-05 14:58 38.46694 -80.24572 26012 ft 442 kts 229°
2026-05-05 14:58 38.44537 -80.27363 26012 ft 442 kts 229°
2026-05-05 14:59 38.42383 -80.30156 26013 ft 442 kts 229°
2026-05-05 14:59 38.40227 -80.32955 26011 ft 442 kts 229°
2026-05-05 14:59 38.38071 -80.35749 26012 ft 442 kts 229°
2026-05-05 14:59 38.35913 -80.38542 26012 ft 442 kts 229°
2026-05-05 15:00 38.33781 -80.41292 26012 ft 442 kts 229°
2026-05-05 15:00 38.32317 -80.43178 26013 ft 442 kts 229°
2026-05-05 15:00 38.29453 -80.46865 26013 ft 442 kts 229°
2026-05-05 15:00 38.27282 -80.49660 26014 ft 443 kts 229°
2026-05-05 15:01 38.25113 -80.52451 26016 ft 443 kts 229°
2026-05-05 15:01 38.22950 -80.55231 26017 ft 443 kts 229°
2026-05-05 15:01 38.20775 -80.58016 26025 ft 443 kts 229°
2026-05-05 15:01 38.18604 -80.60798 26029 ft 443 kts 229°
2026-05-05 15:02 38.16431 -80.63579 26033 ft 444 kts 229°
2026-05-05 15:02 38.14255 -80.66362 26033 ft 443 kts 229°
2026-05-05 15:02 38.12082 -80.69143 26033 ft 443 kts 229°
2026-05-05 15:02 38.09904 -80.71924 26034 ft 443 kts 229°
2026-05-05 15:03 38.07729 -80.74693 26028 ft 443 kts 228°
2026-05-05 15:03 38.05552 -80.77460 26036 ft 443 kts 228°
2026-05-05 15:03 38.03371 -80.80237 26040 ft 444 kts 229°
2026-05-05 15:03 38.01220 -80.82978 26044 ft 444 kts 229°
2026-05-05 15:04 37.99040 -80.85754 26047 ft 444 kts 229°
2026-05-05 15:04 37.96858 -80.88528 26043 ft 444 kts 229°
2026-05-05 15:04 37.94670 -80.91303 26047 ft 444 kts 229°
2026-05-05 15:04 37.92565 -80.93971 26043 ft 444 kts 229°
2026-05-05 15:05 37.88188 -80.99516 26044 ft 445 kts 229°
2026-05-05 15:05 37.86000 -81.02288 26047 ft 446 kts 229°
2026-05-05 15:05 37.83804 -81.05065 26057 ft 446 kts 229°
2026-05-05 15:06 37.81608 -81.07836 26059 ft 446 kts 228°
2026-05-05 15:06 37.79407 -81.10608 26050 ft 447 kts 228°
2026-05-05 15:06 37.77280 -81.13484 26047 ft 446 kts 233°
2026-05-05 15:06 37.75312 -81.16522 26051 ft 447 kts 234°
2026-05-05 15:07 37.73338 -81.19565 26048 ft 448 kts 233°
2026-05-05 15:07 37.71386 -81.22566 26051 ft 448 kts 233°
2026-05-05 15:07 37.69402 -81.25610 26052 ft 449 kts 233°
2026-05-05 15:07 37.67417 -81.28657 26053 ft 449 kts 233°
2026-05-05 15:08 37.65427 -81.31712 26064 ft 450 kts 234°
2026-05-05 15:08 37.63436 -81.34763 26067 ft 450 kts 233°
2026-05-05 15:08 37.61445 -81.37807 26070 ft 450 kts 233°
2026-05-05 15:08 37.59451 -81.40854 26071 ft 450 kts 233°
2026-05-05 15:09 37.57459 -81.43900 26076 ft 450 kts 233°
2026-05-05 15:09 37.55470 -81.46942 26080 ft 450 kts 233°
2026-05-05 15:09 37.53476 -81.49982 26109 ft 450 kts 233°
2026-05-05 15:09 37.51480 -81.53023 26115 ft 451 kts 233°
2026-05-05 15:10 37.49481 -81.56063 26110 ft 451 kts 233°
2026-05-05 15:10 37.47482 -81.59103 26111 ft 451 kts 233°
2026-05-05 15:10 37.45482 -81.62140 26119 ft 450 kts 233°
2026-05-05 15:10 37.44155 -81.64153 26118 ft 450 kts 233°
2026-05-05 15:11 37.41503 -81.68169 26109 ft 450 kts 233°
2026-05-05 15:11 37.39501 -81.71200 26102 ft 450 kts 233°
2026-05-05 15:11 37.37502 -81.74224 26098 ft 450 kts 233°
2026-05-05 15:11 37.35497 -81.77257 26094 ft 450 kts 233°
2026-05-05 15:12 37.33498 -81.80280 26092 ft 450 kts 233°
2026-05-05 15:12 37.31496 -81.83305 26089 ft 450 kts 233°
2026-05-05 15:12 37.29494 -81.86326 26088 ft 450 kts 233°
2026-05-05 15:12 37.27487 -81.89350 26087 ft 450 kts 233°
2026-05-05 15:13 37.25481 -81.92368 26086 ft 450 kts 233°
2026-05-05 15:13 37.23471 -81.95388 26084 ft 450 kts 233°
2026-05-05 15:13 37.21460 -81.98404 26083 ft 450 kts 233°
2026-05-05 15:13 37.19447 -82.01421 26079 ft 450 kts 233°
2026-05-05 15:14 37.17433 -82.04439 26081 ft 450 kts 233°
2026-05-05 15:14 37.15452 -82.07405 26081 ft 450 kts 233°
2026-05-05 15:14 37.13443 -82.10413 26080 ft 450 kts 233°
2026-05-05 15:14 37.11436 -82.13416 26080 ft 450 kts 233°
2026-05-05 15:15 37.09425 -82.16423 26080 ft 450 kts 233°
2026-05-05 15:15 37.07415 -82.19425 26080 ft 450 kts 233°
2026-05-05 15:15 37.05402 -82.22427 26079 ft 450 kts 233°
2026-05-05 15:15 37.03385 -82.25432 26079 ft 450 kts 233°
2026-05-05 15:16 37.02024 -82.27457 26080 ft 450 kts 233°
2026-05-05 15:16 36.99357 -82.31422 26076 ft 449 kts 233°
2026-05-05 15:16 36.97343 -82.34413 26077 ft 450 kts 233°
2026-05-05 15:16 36.95326 -82.37405 26081 ft 450 kts 233°
2026-05-05 15:17 36.93988 -82.39388 26080 ft 450 kts 233°
2026-05-05 15:17 36.91970 -82.42376 26082 ft 450 kts 233°
2026-05-05 15:17 36.89949 -82.45369 26085 ft 450 kts 233°
2026-05-05 15:17 36.87927 -82.48361 26087 ft 451 kts 233°
2026-05-05 15:18 36.85905 -82.51349 26090 ft 451 kts 233°
2026-05-05 15:18 36.83876 -82.54343 26091 ft 451 kts 233°
2026-05-05 15:18 36.81851 -82.57332 26092 ft 450 kts 233°
2026-05-05 15:18 36.79830 -82.60315 26087 ft 450 kts 233°
2026-05-05 15:19 36.77805 -82.63302 26085 ft 450 kts 233°
2026-05-05 15:19 36.75782 -82.66282 26081 ft 450 kts 233°
2026-05-05 15:19 36.73759 -82.69256 26082 ft 450 kts 233°
2026-05-05 15:19 36.71735 -82.72233 26080 ft 450 kts 233°
2026-05-05 15:20 36.69713 -82.75210 26077 ft 450 kts 233°
2026-05-05 15:20 36.67691 -82.78182 26075 ft 449 kts 233°
2026-05-05 15:20 36.65666 -82.81149 26071 ft 449 kts 233°
2026-05-05 15:20 36.63633 -82.84116 26072 ft 450 kts 233°
2026-05-05 15:21 36.61602 -82.87072 26072 ft 449 kts 233°
2026-05-05 15:21 36.59583 -82.90017 26076 ft 446 kts 232°
2026-05-05 15:21 36.57560 -82.92957 26052 ft 448 kts 233°
2026-05-05 15:21 36.55576 -82.95868 26042 ft 447 kts 233°
2026-05-05 15:22 36.53561 -82.98816 26045 ft 448 kts 233°
2026-05-05 15:22 36.51537 -83.01763 26049 ft 448 kts 233°
2026-05-05 15:22 36.49480 -83.04752 26055 ft 449 kts 233°
2026-05-05 15:22 36.47445 -83.07706 26052 ft 450 kts 233°
2026-05-05 15:23 36.45436 -83.10617 26047 ft 449 kts 233°
2026-05-05 15:23 36.43398 -83.13571 26057 ft 450 kts 233°
2026-05-05 15:23 36.41359 -83.16534 26060 ft 450 kts 233°
2026-05-05 15:23 36.39325 -83.19487 26069 ft 451 kts 233°
2026-05-05 15:24 36.37283 -83.22448 26073 ft 451 kts 233°
2026-05-05 15:24 36.35248 -83.25394 26075 ft 450 kts 233°
2026-05-05 15:24 36.33209 -83.28342 26096 ft 449 kts 233°
2026-05-05 15:24 36.31173 -83.31285 26105 ft 450 kts 233°
2026-05-05 15:25 36.29132 -83.34228 26097 ft 450 kts 233°
2026-05-05 15:25 36.27091 -83.37168 26091 ft 450 kts 233°
2026-05-05 15:25 36.25048 -83.40107 26113 ft 449 kts 233°
2026-05-05 15:25 36.23004 -83.43039 26114 ft 450 kts 233°
2026-05-05 15:26 36.20958 -83.45972 26115 ft 450 kts 233°
2026-05-05 15:26 36.18912 -83.48909 26103 ft 450 kts 233°
2026-05-05 15:26 36.16896 -83.51804 26119 ft 449 kts 233°
2026-05-05 15:26 36.14853 -83.54731 26120 ft 449 kts 233°
2026-05-05 15:27 36.12808 -83.57663 26114 ft 450 kts 233°
2026-05-05 15:27 36.10762 -83.60591 26101 ft 449 kts 233°
2026-05-05 15:27 36.08718 -83.63514 26091 ft 449 kts 233°
2026-05-05 15:27 36.06670 -83.66441 26080 ft 449 kts 233°
2026-05-05 15:28 36.04626 -83.69360 26072 ft 449 kts 233°
2026-05-05 15:28 36.02577 -83.72280 26067 ft 449 kts 233°
2026-05-05 15:28 36.00527 -83.75197 26058 ft 450 kts 233°
2026-05-05 15:28 35.98474 -83.78115 26057 ft 449 kts 233°
2026-05-05 15:29 35.96421 -83.81030 26053 ft 449 kts 233°
2026-05-05 15:29 35.94369 -83.83944 26057 ft 449 kts 233°
2026-05-05 15:29 35.92321 -83.86851 26075 ft 448 kts 233°
2026-05-05 15:29 35.90277 -83.89752 26076 ft 449 kts 233°
2026-05-05 15:30 35.88212 -83.92635 26067 ft 449 kts 232°
2026-05-05 15:30 35.86115 -83.95497 26060 ft 450 kts 232°
2026-05-05 15:30 35.84000 -83.98341 26051 ft 450 kts 232°
2026-05-05 15:30 35.81880 -84.01176 26050 ft 450 kts 232°
2026-05-05 15:31 35.79761 -84.04013 26049 ft 450 kts 232°
2026-05-05 15:31 35.77671 -84.06819 26052 ft 450 kts 232°
2026-05-05 15:31 35.75561 -84.09667 26047 ft 450 kts 232°
2026-05-05 15:31 35.73454 -84.12517 26040 ft 449 kts 232°
2026-05-05 15:32 35.71353 -84.15363 26040 ft 449 kts 232°
2026-05-05 15:32 35.69256 -84.18202 26038 ft 449 kts 232°
2026-05-05 15:32 35.67149 -84.21047 26039 ft 449 kts 232°
2026-05-05 15:32 35.65040 -84.23887 26044 ft 450 kts 232°
2026-05-05 15:33 35.62926 -84.26727 26039 ft 450 kts 232°
2026-05-05 15:33 35.60812 -84.29563 26046 ft 450 kts 232°
2026-05-05 15:33 35.58699 -84.32396 26077 ft 450 kts 232°
2026-05-05 15:33 35.56584 -84.35232 26082 ft 450 kts 232°
2026-05-05 15:34 35.54465 -84.38073 26077 ft 450 kts 232°
2026-05-05 15:34 35.52346 -84.40910 26074 ft 450 kts 232°
2026-05-05 15:34 35.50256 -84.43703 26069 ft 450 kts 232°
2026-05-05 15:34 35.48137 -84.46535 26066 ft 450 kts 232°
2026-05-05 15:35 35.46019 -84.49363 26064 ft 450 kts 232°
2026-05-05 15:35 35.43898 -84.52193 26055 ft 450 kts 232°
2026-05-05 15:35 35.41781 -84.55016 26066 ft 449 kts 232°
2026-05-05 15:35 35.39666 -84.57838 26065 ft 449 kts 232°
2026-05-05 15:36 35.37547 -84.60667 26068 ft 450 kts 232°
2026-05-05 15:36 35.35429 -84.63490 26066 ft 449 kts 232°
2026-05-05 15:36 35.33311 -84.66304 26066 ft 449 kts 232°
2026-05-05 15:36 35.31191 -84.69116 26057 ft 449 kts 232°
2026-05-05 15:37 35.29072 -84.71925 26059 ft 449 kts 232°
2026-05-05 15:37 35.26946 -84.74742 26058 ft 449 kts 232°
2026-05-05 15:37 35.24823 -84.77550 26049 ft 450 kts 232°
2026-05-05 15:37 35.22702 -84.80362 26055 ft 450 kts 232°
2026-05-05 15:38 35.20583 -84.83169 26053 ft 450 kts 232°
2026-05-05 15:38 35.18454 -84.85981 26051 ft 449 kts 232°
2026-05-05 15:38 35.16329 -84.88785 26055 ft 450 kts 232°
2026-05-05 15:38 35.14228 -84.91553 26055 ft 449 kts 232°
2026-05-05 15:39 35.12101 -84.94353 26049 ft 449 kts 232°
2026-05-05 15:39 35.09972 -84.97152 26046 ft 449 kts 232°
2026-05-05 15:39 35.07846 -84.99950 26047 ft 449 kts 232°
2026-05-05 15:39 35.05721 -85.02748 26041 ft 448 kts 232°
2026-05-05 15:40 35.03594 -85.05546 26043 ft 448 kts 232°
2026-05-05 15:40 35.01468 -85.08340 26049 ft 449 kts 232°
2026-05-05 15:40 34.99343 -85.11129 26040 ft 449 kts 232°
2026-05-05 15:40 34.97220 -85.13912 26046 ft 448 kts 232°
2026-05-05 15:41 34.95098 -85.16701 26046 ft 448 kts 233°
2026-05-05 15:41 34.93014 -85.19521 26043 ft 447 kts 233°
2026-05-05 15:41 34.90962 -85.22369 26041 ft 447 kts 234°
2026-05-05 15:41 34.88950 -85.25197 26043 ft 447 kts 234°
2026-05-05 15:42 34.88262 -85.26166 26043 ft 447 kts 234°
2026-05-05 15:42 34.84871 -85.30915 26041 ft 447 kts 234°
2026-05-05 15:42 34.82817 -85.33766 26042 ft 447 kts 234°
2026-05-05 15:42 34.80754 -85.36612 26049 ft 448 kts 234°
2026-05-05 15:43 34.78690 -85.39450 26049 ft 448 kts 234°
2026-05-05 15:43 34.76623 -85.42287 26045 ft 447 kts 234°
2026-05-05 15:43 34.74556 -85.45125 26046 ft 448 kts 234°
2026-05-05 15:43 34.72493 -85.47957 26051 ft 448 kts 234°
2026-05-05 15:44 34.70427 -85.50794 26054 ft 448 kts 234°
2026-05-05 15:44 34.68361 -85.53631 26059 ft 448 kts 234°
2026-05-05 15:44 34.66295 -85.56467 26053 ft 448 kts 234°
2026-05-05 15:44 34.64226 -85.59303 26052 ft 448 kts 234°
2026-05-05 15:45 34.62158 -85.62137 26054 ft 448 kts 234°
2026-05-05 15:45 34.60789 -85.64012 26056 ft 448 kts 234°
2026-05-05 15:45 34.58051 -85.67754 26058 ft 448 kts 234°
2026-05-05 15:45 34.55981 -85.70578 26054 ft 448 kts 234°
2026-05-05 15:46 34.53911 -85.73399 26051 ft 447 kts 234°
2026-05-05 15:46 34.51846 -85.76216 26054 ft 447 kts 234°
2026-05-05 15:46 34.49778 -85.79036 26050 ft 447 kts 234°
2026-05-05 15:46 34.47708 -85.81854 26051 ft 447 kts 234°
2026-05-05 15:47 34.45638 -85.84671 26042 ft 447 kts 234°
2026-05-05 15:47 34.44266 -85.86539 26045 ft 447 kts 234°
2026-05-05 15:47 34.41498 -85.90310 26049 ft 448 kts 234°
2026-05-05 15:47 34.39425 -85.93122 26046 ft 448 kts 234°
2026-05-05 15:48 34.37346 -85.95940 26048 ft 448 kts 234°
2026-05-05 15:48 34.35268 -85.98752 26049 ft 448 kts 234°
2026-05-05 15:48 34.33889 -86.00617 26051 ft 448 kts 234°
2026-05-05 15:48 34.31106 -86.04383 26050 ft 448 kts 234°
2026-05-05 15:49 34.29030 -86.07190 26047 ft 448 kts 234°
2026-05-05 15:49 34.26949 -86.09998 26045 ft 448 kts 234°
2026-05-05 15:49 34.24870 -86.12797 26046 ft 448 kts 234°
2026-05-05 15:49 34.22786 -86.15601 26048 ft 447 kts 234°
2026-05-05 15:50 34.20709 -86.18395 26041 ft 448 kts 234°
2026-05-05 15:50 34.18654 -86.21160 26048 ft 448 kts 234°
2026-05-05 15:50 34.16574 -86.23961 26047 ft 448 kts 234°
2026-05-05 15:50 34.14489 -86.26770 26047 ft 448 kts 234°
2026-05-05 15:51 34.12404 -86.29572 26048 ft 448 kts 234°
2026-05-05 15:51 34.10321 -86.32367 26058 ft 448 kts 234°
2026-05-05 15:51 34.08236 -86.35162 26057 ft 448 kts 234°
2026-05-05 15:51 34.06148 -86.37959 26054 ft 448 kts 234°
2026-05-05 15:52 34.04061 -86.40755 26061 ft 448 kts 234°
2026-05-05 15:52 34.01976 -86.43549 26066 ft 448 kts 234°
2026-05-05 15:52 33.99886 -86.46346 26055 ft 448 kts 234°
2026-05-05 15:52 33.97796 -86.49135 26056 ft 448 kts 234°
2026-05-05 15:53 33.95708 -86.51920 26054 ft 448 kts 234°
2026-05-05 15:53 33.93618 -86.54705 26055 ft 448 kts 234°
2026-05-05 15:53 33.91528 -86.57493 26054 ft 448 kts 234°
2026-05-05 15:53 33.89436 -86.60281 26065 ft 448 kts 234°
2026-05-05 15:54 33.87337 -86.63072 26059 ft 448 kts 234°
2026-05-05 15:54 33.85242 -86.65852 26054 ft 448 kts 234°
2026-05-05 15:54 33.83149 -86.68632 26065 ft 448 kts 234°
2026-05-05 15:54 33.81764 -86.70471 26064 ft 447 kts 234°
2026-05-05 15:55 33.78995 -86.74143 26066 ft 448 kts 234°
2026-05-05 15:55 33.76904 -86.76912 26071 ft 448 kts 234°
2026-05-05 15:55 33.74814 -86.79677 26070 ft 447 kts 234°
2026-05-05 15:55 33.72719 -86.82450 26066 ft 448 kts 234°
2026-05-05 15:56 33.70650 -86.85238 26059 ft 445 kts 237°
2026-05-05 15:56 33.68930 -86.88276 26059 ft 437 kts 246°
2026-05-05 15:56 33.67679 -86.91568 26064 ft 430 kts 255°
2026-05-05 15:56 33.66903 -86.95008 26061 ft 424 kts 264°
2026-05-05 15:57 33.66599 -86.98509 26061 ft 421 kts 270°
2026-05-05 15:57 33.66447 -87.02018 26060 ft 421 kts 270°
2026-05-05 15:57 33.66289 -87.05532 26059 ft 421 kts 270°
2026-05-05 15:57 33.66121 -87.09039 26058 ft 421 kts 270°
2026-05-05 15:58 33.66005 -87.11361 26054 ft 421 kts 270°
2026-05-05 15:58 33.65763 -87.16055 26046 ft 422 kts 270°
2026-05-05 15:58 33.65644 -87.18381 26054 ft 422 kts 270°
2026-05-05 15:58 33.65465 -87.21894 26054 ft 421 kts 270°
2026-05-05 15:59 33.65289 -87.25407 26055 ft 421 kts 270°
2026-05-05 15:59 33.65113 -87.28920 26043 ft 422 kts 269°
2026-05-05 15:59 33.64937 -87.32432 26049 ft 422 kts 269°
2026-05-05 15:59 33.64701 -87.37095 26048 ft 422 kts 269°
2026-05-05 16:00 33.64577 -87.39472 26046 ft 422 kts 269°
2026-05-05 16:00 33.64392 -87.42990 26046 ft 422 kts 269°
2026-05-05 16:00 33.64209 -87.46458 26038 ft 422 kts 269°
2026-05-05 16:00 33.64023 -87.49984 26043 ft 422 kts 269°
2026-05-05 16:01 33.63841 -87.53494 26046 ft 422 kts 269°
2026-05-05 16:01 33.63656 -87.57012 26043 ft 422 kts 269°
2026-05-05 16:01 33.63473 -87.60525 26040 ft 422 kts 269°
2026-05-05 16:01 33.63286 -87.64044 26039 ft 423 kts 269°
2026-05-05 16:02 33.63097 -87.67569 26044 ft 423 kts 269°
2026-05-05 16:02 33.62907 -87.71091 26039 ft 423 kts 269°
2026-05-05 16:02 33.62712 -87.74618 26038 ft 423 kts 269°
2026-05-05 16:02 33.62519 -87.78138 26035 ft 423 kts 269°
2026-05-05 16:03 33.62325 -87.81664 26034 ft 423 kts 269°
2026-05-05 16:03 33.62131 -87.85183 26032 ft 423 kts 269°
2026-05-05 16:03 33.61942 -87.88651 26030 ft 423 kts 269°
2026-05-05 16:03 33.61750 -87.92177 26027 ft 423 kts 269°
2026-05-05 16:04 33.61555 -87.95707 26024 ft 423 kts 269°
2026-05-05 16:04 33.61358 -87.99224 26019 ft 423 kts 269°
2026-05-05 16:04 33.61158 -88.02748 26017 ft 422 kts 269°
2026-05-05 16:04 33.60960 -88.06261 26014 ft 423 kts 269°
2026-05-05 16:05 33.60760 -88.09779 26014 ft 423 kts 269°
2026-05-05 16:05 33.60558 -88.13312 26013 ft 423 kts 269°
2026-05-05 16:05 33.60354 -88.16832 26011 ft 423 kts 269°
2026-05-05 16:05 33.60149 -88.20360 26011 ft 424 kts 269°
2026-05-05 16:06 33.59946 -88.23844 26007 ft 424 kts 269°
2026-05-05 16:06 33.59743 -88.27373 26003 ft 424 kts 269°
2026-05-05 16:06 33.59539 -88.30898 25998 ft 423 kts 269°
2026-05-05 16:06 33.59331 -88.34416 25994 ft 423 kts 269°
2026-05-05 16:07 33.59119 -88.37949 25991 ft 423 kts 269°
2026-05-05 16:07 33.58906 -88.41473 25987 ft 423 kts 269°
2026-05-05 16:07 33.58694 -88.44996 25986 ft 423 kts 269°
2026-05-05 16:07 33.58554 -88.47328 25985 ft 423 kts 269°
2026-05-05 16:08 33.58270 -88.52038 25986 ft 423 kts 269°
2026-05-05 16:08 33.58058 -88.55554 25986 ft 423 kts 269°
2026-05-05 16:08 33.57846 -88.59072 25987 ft 423 kts 269°
2026-05-05 16:08 33.57632 -88.62592 25989 ft 423 kts 269°
2026-05-05 16:09 33.57418 -88.66104 25992 ft 422 kts 269°
2026-05-05 16:09 33.57202 -88.69616 25996 ft 422 kts 269°
2026-05-05 16:09 33.56984 -88.73127 25996 ft 422 kts 269°
2026-05-05 16:09 33.56766 -88.76633 25996 ft 422 kts 269°
2026-05-05 16:10 33.56546 -88.80142 25997 ft 422 kts 269°
2026-05-05 16:10 33.56323 -88.83646 25996 ft 422 kts 269°
2026-05-05 16:10 33.56100 -88.87107 25995 ft 421 kts 269°
2026-05-05 16:10 33.55875 -88.90609 25993 ft 421 kts 269°
2026-05-05 16:11 33.55652 -88.94112 25992 ft 421 kts 269°
2026-05-05 16:11 33.54982 -89.04607 25989 ft 420 kts 269°
2026-05-05 16:12 33.54756 -89.08098 25991 ft 420 kts 269°
2026-05-05 16:12 33.54301 -89.15095 25986 ft 420 kts 269°
2026-05-05 16:13 33.53607 -89.25550 25976 ft 419 kts 268°
2026-05-05 16:13 33.53374 -89.29034 25975 ft 419 kts 268°
2026-05-05 16:13 33.53142 -89.32472 25974 ft 419 kts 268°
2026-05-05 16:14 33.52668 -89.39436 25977 ft 419 kts 268°
2026-05-05 16:14 33.52191 -89.46407 25978 ft 419 kts 268°
2026-05-05 16:15 33.51716 -89.53377 25976 ft 419 kts 268°
2026-05-05 16:15 33.51236 -89.60342 25972 ft 419 kts 268°
2026-05-05 16:16 33.50753 -89.67296 25972 ft 419 kts 268°
2026-05-05 16:16 33.50264 -89.74250 25970 ft 418 kts 268°
2026-05-05 16:17 33.49773 -89.81199 25971 ft 418 kts 268°
2026-05-05 16:17 33.49527 -89.84624 25970 ft 418 kts 268°
2026-05-05 16:18 33.49030 -89.91560 25968 ft 418 kts 268°
2026-05-05 16:18 33.48784 -89.95033 25965 ft 418 kts 268°
2026-05-05 16:18 33.48285 -90.01968 25955 ft 417 kts 268°
2026-05-05 16:19 33.48031 -90.05430 25956 ft 417 kts 268°
2026-05-05 16:19 33.47775 -90.08894 25956 ft 418 kts 268°
2026-05-05 16:19 33.47266 -90.15835 25954 ft 418 kts 268°
2026-05-05 16:20 33.46751 -90.22776 25955 ft 418 kts 268°
2026-05-05 16:20 33.46700 -90.28524 25952 ft 414 kts 279°
2026-05-05 16:21 33.48267 -90.36294 25952 ft 413 kts 285°
2026-05-05 16:22 33.50435 -90.46304 25948 ft 414 kts 285°
2026-05-05 16:22 33.51882 -90.53000 25946 ft 414 kts 285°
2026-05-05 16:23 33.53325 -90.59687 25936 ft 414 kts 285°
2026-05-05 16:23 33.54035 -90.62991 25932 ft 414 kts 285°
2026-05-05 16:23 33.55468 -90.69680 25927 ft 414 kts 285°
2026-05-05 16:24 33.55942 -90.71898 25924 ft 414 kts 285°
2026-05-05 16:24 33.56896 -90.76374 25926 ft 415 kts 285°
2026-05-05 16:24 33.58326 -90.83072 25925 ft 415 kts 285°
2026-05-05 16:25 33.59042 -90.86431 25924 ft 415 kts 284°
2026-05-05 16:25 33.60470 -90.93137 25910 ft 415 kts 284°
2026-05-05 16:25 33.61188 -90.96500 25916 ft 416 kts 285°
2026-05-05 16:26 33.62613 -91.03222 25918 ft 415 kts 284°
2026-05-05 16:26 33.64023 -91.09942 25924 ft 415 kts 284°
2026-05-05 16:27 33.64730 -91.13299 25922 ft 415 kts 284°
2026-05-05 16:27 33.65198 -91.15523 25922 ft 415 kts 284°
2026-05-05 16:27 33.66146 -91.20023 25915 ft 415 kts 284°
2026-05-05 16:27 33.66850 -91.23383 25917 ft 415 kts 284°
2026-05-05 16:28 33.67551 -91.26747 25911 ft 415 kts 284°
2026-05-05 16:28 33.68252 -91.30111 25911 ft 415 kts 284°
2026-05-05 16:28 33.68953 -91.33472 25909 ft 415 kts 284°
2026-05-05 16:28 33.69654 -91.36834 25900 ft 415 kts 284°
2026-05-05 16:29 33.70356 -91.40200 25895 ft 415 kts 284°
2026-05-05 16:29 33.71059 -91.43572 25896 ft 415 kts 284°
2026-05-05 16:29 33.71759 -91.46936 25891 ft 415 kts 284°
2026-05-05 16:29 33.72461 -91.50308 25890 ft 416 kts 284°
2026-05-05 16:30 33.73154 -91.53633 25892 ft 416 kts 284°
2026-05-05 16:30 33.73851 -91.57004 25888 ft 416 kts 284°
2026-05-05 16:30 33.74548 -91.60380 25885 ft 416 kts 284°
2026-05-05 16:30 33.75242 -91.63753 25884 ft 415 kts 284°
2026-05-05 16:31 33.75932 -91.67119 25882 ft 415 kts 284°
2026-05-05 16:31 33.76627 -91.70495 25883 ft 415 kts 284°
2026-05-05 16:31 33.77321 -91.73867 25882 ft 415 kts 284°
2026-05-05 16:31 33.78015 -91.77251 25882 ft 415 kts 284°
2026-05-05 16:32 33.78704 -91.80621 25881 ft 415 kts 284°
2026-05-05 16:32 33.79391 -91.84005 25881 ft 416 kts 284°
2026-05-05 16:32 33.80076 -91.87386 25878 ft 416 kts 283°
2026-05-05 16:32 33.80754 -91.90724 25876 ft 416 kts 284°
2026-05-05 16:33 33.81442 -91.94103 25877 ft 416 kts 284°
2026-05-05 16:33 33.82134 -91.97489 25874 ft 416 kts 284°
2026-05-05 16:33 33.82823 -92.00867 25873 ft 416 kts 284°
2026-05-05 16:33 33.83508 -92.04248 25869 ft 416 kts 283°
2026-05-05 16:34 33.84188 -92.07631 25868 ft 416 kts 283°
2026-05-05 16:34 33.84867 -92.11013 25868 ft 416 kts 283°
2026-05-05 16:34 33.85548 -92.14396 25868 ft 416 kts 283°
2026-05-05 16:34 33.86227 -92.17777 25867 ft 416 kts 283°
2026-05-05 16:35 33.86906 -92.21170 25868 ft 416 kts 283°
2026-05-05 16:35 33.87585 -92.24556 25865 ft 417 kts 283°
2026-05-05 16:35 33.88266 -92.27946 25866 ft 417 kts 283°
2026-05-05 16:35 33.88947 -92.31337 25867 ft 417 kts 283°
2026-05-05 16:36 33.89628 -92.34727 25869 ft 417 kts 283°
2026-05-05 16:36 33.90307 -92.38123 25873 ft 417 kts 283°
2026-05-05 16:36 33.90985 -92.41519 25873 ft 417 kts 283°
2026-05-05 16:36 33.91660 -92.44906 25873 ft 416 kts 283°
2026-05-05 16:37 33.92331 -92.48295 25871 ft 416 kts 283°
2026-05-05 16:37 33.92992 -92.51648 25868 ft 415 kts 283°
2026-05-05 16:37 33.93659 -92.55032 25867 ft 415 kts 283°
2026-05-05 16:37 33.94328 -92.58419 25865 ft 415 kts 283°
2026-05-05 16:38 33.94997 -92.61799 25863 ft 415 kts 283°
2026-05-05 16:38 33.95663 -92.65180 25861 ft 415 kts 283°
2026-05-05 16:38 33.96327 -92.68564 25860 ft 415 kts 283°
2026-05-05 16:38 33.96990 -92.71945 25858 ft 415 kts 283°
2026-05-05 16:39 33.97654 -92.75331 25862 ft 415 kts 283°
2026-05-05 16:39 33.98319 -92.78720 25863 ft 415 kts 283°
2026-05-05 16:39 33.98981 -92.82097 25860 ft 414 kts 283°
2026-05-05 16:39 33.99640 -92.85479 25859 ft 414 kts 283°
2026-05-05 16:40 34.00296 -92.88863 25855 ft 414 kts 283°
2026-05-05 16:40 34.00728 -92.91101 25853 ft 415 kts 283°
2026-05-05 16:40 34.01601 -92.95633 25848 ft 414 kts 283°
2026-05-05 16:40 34.02254 -92.99020 25847 ft 414 kts 283°
2026-05-05 16:41 34.02897 -93.02362 25846 ft 414 kts 283°
2026-05-05 16:41 34.03550 -93.05745 25845 ft 414 kts 282°
2026-05-05 16:41 34.04203 -93.09128 25844 ft 415 kts 282°
2026-05-05 16:41 34.04858 -93.12511 25845 ft 415 kts 283°
2026-05-05 16:42 34.05301 -93.14803 25845 ft 414 kts 282°
2026-05-05 16:42 34.06167 -93.19289 25842 ft 414 kts 282°
2026-05-05 16:42 34.06818 -93.22673 25841 ft 414 kts 282°
2026-05-05 16:42 34.07469 -93.26062 25843 ft 415 kts 282°
2026-05-05 16:43 34.08116 -93.29454 25842 ft 415 kts 282°
2026-05-05 16:43 34.08550 -93.31744 25841 ft 415 kts 282°
2026-05-05 16:43 34.09194 -93.35139 25839 ft 415 kts 282°
2026-05-05 16:43 34.09829 -93.38488 25836 ft 414 kts 282°
2026-05-05 16:44 34.10472 -93.41874 25836 ft 414 kts 282°
2026-05-05 16:44 34.11118 -93.45263 25840 ft 414 kts 282°
2026-05-05 16:44 34.11760 -93.48648 25835 ft 414 kts 282°
2026-05-05 16:44 34.12400 -93.52040 25832 ft 414 kts 282°
2026-05-05 16:45 34.13038 -93.55421 25830 ft 414 kts 282°
2026-05-05 16:45 34.13675 -93.58809 25834 ft 414 kts 282°
2026-05-05 16:45 34.14313 -93.62201 25831 ft 414 kts 282°
2026-05-05 16:45 34.14951 -93.65595 25824 ft 414 kts 282°
2026-05-05 16:46 34.15588 -93.68991 25824 ft 414 kts 282°
2026-05-05 16:46 34.16222 -93.72382 25816 ft 414 kts 282°
2026-05-05 16:46 34.16853 -93.75775 25815 ft 414 kts 282°
2026-05-05 16:46 34.17477 -93.79124 25817 ft 414 kts 282°
2026-05-05 16:47 34.18119 -93.82558 25810 ft 414 kts 282°
2026-05-05 16:47 34.18726 -93.85948 25800 ft 414 kts 279°
2026-05-05 16:47 34.18925 -93.89374 25796 ft 415 kts 270°
2026-05-05 16:47 34.18586 -93.92840 25795 ft 417 kts 261°
2026-05-05 16:48 34.17735 -93.96208 25798 ft 421 kts 253°
2026-05-05 16:48 34.16716 -93.99527 25794 ft 421 kts 253°
2026-05-05 16:48 34.15695 -94.02843 25794 ft 421 kts 253°
2026-05-05 16:48 34.14674 -94.06164 25793 ft 422 kts 253°
2026-05-05 16:49 34.13653 -94.09479 25795 ft 422 kts 253°
2026-05-05 16:49 34.12629 -94.12804 25795 ft 422 kts 253°
2026-05-05 16:49 34.11611 -94.16122 25793 ft 422 kts 253°
2026-05-05 16:49 34.10592 -94.19441 25793 ft 422 kts 253°
2026-05-05 16:50 34.09568 -94.22770 25792 ft 422 kts 253°
2026-05-05 16:50 34.08547 -94.26087 25793 ft 422 kts 253°
2026-05-05 16:50 34.07523 -94.29410 25792 ft 422 kts 253°
2026-05-05 16:50 34.06502 -94.32723 25790 ft 421 kts 253°
2026-05-05 16:51 34.05478 -94.36039 25794 ft 421 kts 253°
2026-05-05 16:51 34.04454 -94.39350 25793 ft 421 kts 253°
2026-05-05 16:51 34.03427 -94.42658 25793 ft 421 kts 253°
2026-05-05 16:51 34.02397 -94.45961 25792 ft 421 kts 253°
2026-05-05 16:52 34.01376 -94.49224 25791 ft 420 kts 253°
2026-05-05 16:52 34.00344 -94.52523 25791 ft 420 kts 253°
2026-05-05 16:52 33.99314 -94.55823 25789 ft 420 kts 253°
2026-05-05 16:52 33.98286 -94.59119 25789 ft 420 kts 253°
2026-05-05 16:53 33.97262 -94.62410 25793 ft 420 kts 253°
2026-05-05 16:53 33.96234 -94.65702 25793 ft 419 kts 253°
2026-05-05 16:53 33.95208 -94.68989 25798 ft 419 kts 253°
2026-05-05 16:53 33.94179 -94.72276 25799 ft 419 kts 253°
2026-05-05 16:54 33.93152 -94.75551 25800 ft 418 kts 253°
2026-05-05 16:54 33.92123 -94.78823 25809 ft 418 kts 253°
2026-05-05 16:54 33.91092 -94.82098 25804 ft 418 kts 253°
2026-05-05 16:54 33.90063 -94.85370 25803 ft 417 kts 253°
2026-05-05 16:55 33.89035 -94.88640 25804 ft 417 kts 253°
2026-05-05 16:55 33.88003 -94.91903 25813 ft 417 kts 253°
2026-05-05 16:55 33.86972 -94.95161 25803 ft 416 kts 253°
2026-05-05 16:55 33.85942 -94.98423 25807 ft 416 kts 253°
2026-05-05 16:56 33.84914 -95.01676 25809 ft 416 kts 253°
2026-05-05 16:56 33.83885 -95.04928 25809 ft 416 kts 253°
2026-05-05 16:56 33.82867 -95.08135 25804 ft 415 kts 253°
2026-05-05 16:56 33.81835 -95.11387 25803 ft 415 kts 253°
2026-05-05 16:57 33.80805 -95.14627 25802 ft 415 kts 253°
2026-05-05 16:57 33.79775 -95.17870 25799 ft 415 kts 253°
2026-05-05 16:57 33.78746 -95.21102 25798 ft 414 kts 253°
2026-05-05 16:57 33.77716 -95.24335 25794 ft 414 kts 252°
2026-05-05 16:58 33.76680 -95.27572 25791 ft 414 kts 252°
2026-05-05 16:58 33.75645 -95.30796 25788 ft 414 kts 252°
2026-05-05 16:58 33.74608 -95.34031 25786 ft 413 kts 252°
2026-05-05 16:58 33.73577 -95.37241 25782 ft 406 kts 252°
2026-05-05 16:59 33.72541 -95.40369 25785 ft 401 kts 252°
2026-05-05 16:59 33.71495 -95.43499 25786 ft 407 kts 252°
2026-05-05 16:59 33.70463 -95.46690 25785 ft 411 kts 252°
2026-05-05 16:59 33.69443 -95.49910 25784 ft 412 kts 253°
2026-05-05 17:00 33.68429 -95.53124 25785 ft 412 kts 252°
2026-05-05 17:00 33.67403 -95.56345 25786 ft 412 kts 252°
2026-05-05 17:00 33.66370 -95.59554 25785 ft 412 kts 252°
2026-05-05 17:00 33.65328 -95.62765 25785 ft 413 kts 252°
2026-05-05 17:01 33.64280 -95.65970 25785 ft 412 kts 252°
2026-05-05 17:01 33.63244 -95.69134 25783 ft 412 kts 252°
2026-05-05 17:01 33.62194 -95.72341 25781 ft 412 kts 252°
2026-05-05 17:01 33.61146 -95.75548 25778 ft 412 kts 252°
2026-05-05 17:02 33.60111 -95.78714 25597 ft 400 kts 252°
2026-05-05 17:02 33.59111 -95.81759 25342 ft 384 kts 252°
2026-05-05 17:02 33.58148 -95.84695 25097 ft 373 kts 252°
2026-05-05 17:02 33.57202 -95.87582 24845 ft 370 kts 252°
2026-05-05 17:03 33.56264 -95.90445 24596 ft 368 kts 252°
2026-05-05 17:03 33.55328 -95.93305 24314 ft 367 kts 251°
2026-05-05 17:03 33.54397 -95.96158 23417 ft 370 kts 251°
2026-05-05 17:03 33.53457 -95.99022 22791 ft 366 kts 251°
2026-05-05 17:04 33.52531 -96.01833 22088 ft 359 kts 251°
2026-05-05 17:04 33.51622 -96.04593 21300 ft 353 kts 251°
2026-05-05 17:04 33.50723 -96.07311 20525 ft 349 kts 251°
2026-05-05 17:04 33.49837 -96.09990 19736 ft 343 kts 251°
2026-05-05 17:05 33.48974 -96.12602 18947 ft 339 kts 252°
2026-05-05 17:05 33.48100 -96.15243 18138 ft 334 kts 252°
2026-05-05 17:05 33.47249 -96.17812 17339 ft 329 kts 252°
2026-05-05 17:05 33.46411 -96.20349 16510 ft 326 kts 252°
2026-05-05 17:06 33.45598 -96.22816 16163 ft 310 kts 251°
2026-05-05 17:06 33.44769 -96.25152 15749 ft 302 kts 245°
2026-05-05 17:06 33.43567 -96.27244 15488 ft 307 kts 234°
2026-05-05 17:06 33.42188 -96.29155 14936 ft 306 kts 234°
2026-05-05 17:07 33.40792 -96.31081 14329 ft 307 kts 233°
2026-05-05 17:07 33.39384 -96.33019 13705 ft 309 kts 232°
2026-05-05 17:07 33.37973 -96.34958 13201 ft 307 kts 232°
2026-05-05 17:07 33.36562 -96.36897 12645 ft 307 kts 232°
2026-05-05 17:08 33.35164 -96.38813 12193 ft 303 kts 232°
2026-05-05 17:08 33.33808 -96.40670 12059 ft 289 kts 232°
2026-05-05 17:08 33.32664 -96.42582 11814 ft 278 kts 243°
2026-05-05 17:08 33.31954 -96.44698 11580 ft 272 kts 253°
2026-05-05 17:09 33.31366 -96.46846 11353 ft 272 kts 252°
2026-05-05 17:09 33.30767 -96.48992 11082 ft 270 kts 252°
2026-05-05 17:09 33.30175 -96.51093 10847 ft 264 kts 252°
2026-05-05 17:09 33.29593 -96.53158 10499 ft 261 kts 252°
2026-05-05 17:10 33.29011 -96.55220 10181 ft 260 kts 252°
2026-05-05 17:10 33.28654 -96.57303 9872 ft 258 kts 265°
2026-05-05 17:10 33.28562 -96.59441 9569 ft 257 kts 266°
2026-05-05 17:10 33.28502 -96.60849 9364 ft 256 kts 266°
2026-05-05 17:11 33.28471 -96.61566 9262 ft 256 kts 266°
2026-05-05 17:11 33.28284 -96.65794 8654 ft 254 kts 265°
2026-05-05 17:11 33.28188 -96.67901 8350 ft 253 kts 266°
2026-05-05 17:11 33.28092 -96.69994 8045 ft 251 kts 265°
2026-05-05 17:12 33.28029 -96.71371 7840 ft 250 kts 265°
2026-05-05 17:12 33.27902 -96.74141 7449 ft 248 kts 265°
2026-05-05 17:12 33.27811 -96.76166 7293 ft 240 kts 265°
2026-05-05 17:12 33.27719 -96.78154 6928 ft 240 kts 265°
2026-05-05 17:13 33.27624 -96.80135 6616 ft 238 kts 265°
2026-05-05 17:13 33.27529 -96.82074 6308 ft 236 kts 265°
2026-05-05 17:13 33.27428 -96.84019 6021 ft 232 kts 262°
2026-05-05 17:13 33.26896 -96.85793 5910 ft 228 kts 242°
2026-05-05 17:14 33.26121 -96.87440 5853 ft 227 kts 242°
2026-05-05 17:14 33.25348 -96.89091 5788 ft 228 kts 241°
2026-05-05 17:14 33.24575 -96.90741 5718 ft 228 kts 241°
2026-05-05 17:14 33.23798 -96.92393 5644 ft 225 kts 241°
2026-05-05 17:15 33.23048 -96.93993 5534 ft 218 kts 242°
2026-05-05 17:15 33.22311 -96.95569 5490 ft 217 kts 241°
2026-05-05 17:15 33.21569 -96.97153 5426 ft 217 kts 241°
2026-05-05 17:15 33.20828 -96.98722 5355 ft 216 kts 239°
2026-05-05 17:16 33.19799 -97.00032 5285 ft 220 kts 218°
2026-05-05 17:16 33.18380 -97.00750 5203 ft 226 kts 195°
2026-05-05 17:16 33.16791 -97.00835 5125 ft 229 kts 185°
2026-05-05 17:16 33.15188 -97.00837 5045 ft 230 kts 185°
2026-05-05 17:17 33.13581 -97.00843 4885 ft 231 kts 186°
2026-05-05 17:17 33.12017 -97.00850 4760 ft 217 kts 186°
2026-05-05 17:17 33.10552 -97.00858 4530 ft 210 kts 186°
2026-05-05 17:17 33.09106 -97.00868 4265 ft 205 kts 185°
2026-05-05 17:18 33.07695 -97.00875 4000 ft 201 kts 184°
2026-05-05 17:18 33.06774 -97.00882 3822 ft 198 kts 185°
2026-05-05 17:18 33.04981 -97.00891 3498 ft 186 kts 184°
2026-05-05 17:18 33.03720 -97.00898 3242 ft 176 kts 184°
2026-05-05 17:19 33.02517 -97.00905 3009 ft 170 kts 184°
2026-05-05 17:19 33.01345 -97.00912 2787 ft 166 kts 184°
2026-05-05 17:19 33.00220 -97.00916 2570 ft 157 kts 184°
2026-05-05 17:19 32.99132 -97.00924 2365 ft 156 kts 184°
2026-05-05 17:20 32.98061 -97.00931 2161 ft 154 kts 184°
2026-05-05 17:20 32.96980 -97.00937 1956 ft 155 kts 184°
2026-05-05 17:20 32.95896 -97.00943 1747 ft 156 kts 184°
2026-05-05 17:20 32.94847 -97.00948 1538 ft 144 kts 182°
2026-05-05 17:21 32.93903 -97.00952 1368 ft 129 kts 183°
2026-05-05 17:21 32.93028 -97.00958 1201 ft 123 kts 182°
2026-05-05 17:21 32.92462 -97.00960 1088 ft 122 kts 181°
2026-05-05 17:22 32.90444 -97.00972 742 ft 127 kts 185°
2026-05-05 17:22 32.89580 -97.00976 556 ft 120 kts 183°
2026-05-05 17:22 32.88871 -97.00984 560 ft 84 kts 179°
2026-05-05 17:22 32.88398 -97.00987 563 ft 57 kts 181°
2026-05-05 17:23 32.88139 -97.00995 573 ft 27 kts 188°
2026-05-05 17:23 32.88023 -97.01046 572 ft 25 kts 212°
2026-05-05 17:23 32.87890 -97.01144 581 ft 21 kts 211°
2026-05-05 17:23 32.87848 -97.01277 580 ft 19 kts 268°
2026-05-05 17:24 32.87852 -97.01433 586 ft 18 kts 274°
2026-05-05 17:24 32.87854 -97.01579 591 ft 18 kts 270°
2026-05-05 17:24 32.87852 -97.01750 585 ft 24 kts 269°
2026-05-05 17:24 32.87857 -97.01983 574 ft 32 kts 271°
2026-05-05 17:25 32.87860 -97.02165 571 ft 35 kts 273°
2026-05-05 17:25 32.87902 -97.02466 570 ft 39 kts 278°
2026-05-05 17:25 32.87903 -97.02858 571 ft 37 kts 270°
2026-05-05 17:25 32.87904 -97.03159 575 ft 34 kts 270°
2026-05-05 17:26 32.87961 -97.03295 582 ft 16 kts
2026-05-05 17:26 32.88083 -97.03292 576 ft 19 kts
2026-05-05 17:26 32.88226 -97.03290 576 ft 20 kts
2026-05-05 17:26 32.88360 -97.03288 577 ft 18 kts 359°
2026-05-05 17:27 32.88485 -97.03302 575 ft 18 kts 341°
2026-05-05 17:27 32.88593 -97.03323 581 ft 13 kts
2026-05-05 17:27 32.88675 -97.03321 583 ft 11 kts
2026-05-05 17:27 32.88756 -97.03319 583 ft 13 kts 360°
2026-05-05 17:28 32.88851 -97.03319 582 ft 15 kts
2026-05-05 17:28 32.88922 -97.03319 582 ft 16 kts 358°
2026-05-05 17:28 32.89066 -97.03358 584 ft 17 kts 323°
2026-05-05 17:28 32.89163 -97.03449 584 ft 19 kts 327°
2026-05-05 17:29 32.89281 -97.03532 585 ft 21 kts 317°
2026-05-05 17:29 32.89368 -97.03655 585 ft 13 kts 298°
2026-05-05 17:29 32.89365 -97.03741 585 ft 7 kts 192°
2026-05-05 17:29 32.89332 -97.03752 585 ft 2 kts 196°
2026-05-05 17:30 32.89322 -97.03755 585 ft 0 kts 195°